Location: Amsterdam
(30.7274°N, 84.4357°W)
Time: 00:50:55
(UTC+00:00)

Tiros 1 - Pass Details

Date: 24 February 2026
Orbit: 618 x 649 km, 48.4° (Epoch: 10 March)

Event Time Altitude Azimuth Distance (km) Brightness Sun altitude
Rises 17:04:19 0° 320° (NW) 2,897 10.1 48.5°
Reaches altitude 10° 17:06:59 10° 334° (NNW) 1,985 9.4 48.6°
Maximum altitude 17:10:45 25° 30° (NNE) 1,263 8.6 48.9°
Drops below altitude 10° 17:14:28 10° 85° (E) 1,973 9.9 49.1°
Sets 17:17:07 0° 99° (E) 2,876 10.7 49.2°
